Weather History for Canton, GA

Change the Weather History Date:

Saturday, November 5, 2011

  Actual Average (KGVL) Record (KGVL)
Temperature  
Mean Temperature 48 °F 56 °F  
Max Temperature 60 °F 66 °F 79 °F (1961)
Min Temperature 35 °F 46 °F 24 °F (1937)
Degree Days  
Heating Degree Days 18 9  
Month to date heating degree days 44  
Since 1 July heating degree days 202  
Moisture  
Dew Point 37 °F    
Average Humidity 71    
Maximum Humidity 100    
Minimum Humidity 36    
Precipitation  
Precipitation 0.00 in 0.12 in 4.12 in (1977)
Month to date precipitation 0.54  
Snow  
Snow - - - ()
Month to date snowfall  
Since 1 July snowfall  
Since 1 September snowfall  
Snow Depth -    
Sea Level Pressure  
Sea Level Pressure 30.24 in    
Wind  
Wind Speed 3 mph ()    
Max Wind Speed 13 mph    
Max Gust Speed 16 mph    
Visibility 7.9 miles    
Events      
T = Trace of Precipitation, MM = Missing Value Source: Averaged Metar Reports

Daily Weather History Graph

Daily Weather History Graph

Search for Another Location

Airport:

Trip Planner

Search our weather history database for the weather conditions in past years. The results will help you decide how hot, cold, wet, or windy it might be!

Date:

Astronomy

Nov. 05, 2011 Rise Set
Actual Time 8:01 AM EDT 6:41 PM EDT
Civil Twilight 7:34 AM EDT 7:07 PM EDT
Nautical Twilight 7:05 AM EDT 7:36 PM EDT
Astronomical Twilight 6:35 AM EDT 8:06 PM EDT
Moon 3:48 PM EDT (11/5) 3:21 AM EDT (11/5)
Length of Visible Light 11h 32m
Length of Day
10h 39m
Waxing Gibbous, 78% of the Moon is Illuminated
Nov 5
Waxing Gibbous
Nov 10
Full
Nov 18
Last Quarter
Nov 25
New
Dec 2
First Quarter

Hourly Weather History & Observations

Time (EDT) Temp. Windchill Dew Point Humidity Pressure Visibility Wind Dir Wind Speed Gust Speed Precip Events Conditions
12:15 AM 44.6 °F 43.1 °F 44.6 °F 100% 30.12 in 10.0 mi West 3.5 mph - N/A   Clear
12:35 AM 44.6 °F - 44.6 °F 100% 30.13 in 10.0 mi Calm Calm - N/A   Clear
12:55 AM 44.6 °F - 44.6 °F 100% 30.13 in 10.0 mi Calm Calm - N/A   Clear
1:15 AM 42.8 °F - 42.8 °F 100% 30.13 in 5.0 mi Calm Calm - N/A   Clear
1:35 AM 41.0 °F - 41.0 °F 100% 30.13 in 4.0 mi Calm Calm - N/A   Clear
1:55 AM 42.8 °F - 42.8 °F 100% 30.14 in 4.0 mi Calm Calm - N/A   Clear
2:15 AM 42.8 °F - 42.8 °F 100% 30.14 in 5.0 mi Calm Calm - N/A   Clear
2:35 AM 41.0 °F - 41.0 °F 100% 30.14 in 3.0 mi Calm Calm - N/A   Clear
2:55 AM 41.0 °F - 41.0 °F 100% 30.14 in 3.0 mi Calm Calm - N/A   Clear
3:55 AM 39.2 °F - 39.2 °F 100% 30.14 in 3.0 mi Calm Calm - N/A   Clear
4:15 AM 37.4 °F 34.9 °F 37.4 °F 100% 30.15 in 2.5 mi North 3.5 mph - N/A   Clear
4:35 AM 35.6 °F 32.8 °F 35.6 °F 100% 30.15 in 2.0 mi NNW 3.5 mph - N/A   Clear
4:55 AM 35.6 °F 32.8 °F 35.6 °F 100% 30.16 in 2.0 mi North 3.5 mph - N/A   Clear
5:35 AM 35.6 °F - 35.6 °F 100% 30.17 in 2.0 mi Calm Calm - N/A   Clear
5:55 AM 37.4 °F - 37.4 °F 100% 30.18 in 3.0 mi Calm Calm - N/A   Clear
6:15 AM 35.6 °F - 35.6 °F 100% 30.19 in 2.0 mi Calm Calm - N/A   Clear
6:35 AM 35.6 °F - 35.6 °F 100% 30.19 in 2.5 mi Calm Calm - N/A   Clear
6:55 AM 37.4 °F - 37.4 °F 100% 30.21 in 5.0 mi Calm Calm - N/A   Clear
7:15 AM 35.6 °F - 35.6 °F 100% 30.21 in 2.5 mi Calm Calm - N/A   Clear
7:35 AM 35.6 °F 32.8 °F 35.6 °F 100% 30.22 in 3.0 mi NNE 3.5 mph - N/A   Clear
8:15 AM 35.6 °F 32.8 °F 35.6 °F 100% 30.24 in 4.0 mi NE 3.5 mph - N/A   Clear
8:35 AM 37.4 °F 34.9 °F 37.4 °F 100% 30.26 in 4.0 mi NE 3.5 mph - N/A   Clear
8:55 AM 39.2 °F 34.2 °F 39.2 °F 100% 30.27 in 5.0 mi ENE 6.9 mph - N/A   Clear
9:15 AM 41.0 °F 36.4 °F 41.0 °F 100% 30.29 in 10.0 mi ENE 6.9 mph - N/A   Clear
9:35 AM 42.8 °F 38.6 °F 41.0 °F 93% 30.30 in 10.0 mi ENE 6.9 mph - N/A   Clear
9:55 AM 44.6 °F 40.2 °F 41.0 °F 87% 30.30 in 10.0 mi East 8.1 mph - N/A   Clear
10:35 AM 48.2 °F - 41.0 °F 76% 30.31 in 10.0 mi East 6.9 mph - N/A   Clear
10:55 AM 50.0 °F - 41.0 °F 71% 30.31 in 10.0 mi East 8.1 mph - N/A   Clear
11:15 AM 51.8 °F - 39.2 °F 62% 30.32 in 10.0 mi East 9.2 mph 16.1 mph N/A   Clear
11:35 AM 51.8 °F - 37.4 °F 58% 30.32 in 10.0 mi East 8.1 mph - N/A   Clear
11:55 AM 51.8 °F - 37.4 °F 58% 30.32 in 10.0 mi ESE 6.9 mph 16.1 mph N/A   Clear
12:15 PM 53.6 °F - 39.2 °F 58% 30.32 in 10.0 mi ENE 9.2 mph - N/A   Clear
12:35 PM 53.6 °F - 39.2 °F 58% 30.31 in 10.0 mi East 8.1 mph - N/A   Clear
12:55 PM 53.6 °F - 39.2 °F 58% 30.31 in 10.0 mi East 12.7 mph - N/A   Clear
1:15 PM 55.4 °F - 39.2 °F 54% 30.30 in 10.0 mi East 8.1 mph - N/A   Clear
2:15 PM 59.0 °F - 39.2 °F 48% 30.27 in 10.0 mi East 10.4 mph - N/A   Clear
2:35 PM 59.0 °F - 39.2 °F 48% 30.27 in 10.0 mi East 5.8 mph - N/A   Clear
2:55 PM 57.2 °F - 37.4 °F 48% 30.27 in 10.0 mi East 4.6 mph - N/A   Clear
3:15 PM 60.8 °F - 41.0 °F 48% 30.26 in 10.0 mi East 5.8 mph - N/A   Clear
3:35 PM 59.0 °F - 37.4 °F 45% 30.26 in 10.0 mi ESE 9.2 mph 16.1 mph N/A   Clear
3:55 PM 60.8 °F - 39.2 °F 45% 30.25 in 10.0 mi ENE 4.6 mph - N/A   Clear
4:15 PM 59.0 °F - 37.4 °F 45% 30.25 in 10.0 mi ESE 6.9 mph - N/A   Clear
4:35 PM 60.8 °F - 37.4 °F 42% 30.25 in 10.0 mi ENE 6.9 mph - N/A   Clear
4:55 PM 59.0 °F - 35.6 °F 42% 30.24 in 10.0 mi East 5.8 mph 16.1 mph N/A   Clear
5:15 PM 59.0 °F - 33.8 °F 39% 30.24 in 10.0 mi ESE 5.8 mph - N/A   Clear
5:35 PM 59.0 °F - 32.0 °F 36% 30.24 in 10.0 mi East 9.2 mph - N/A   Clear
5:55 PM 59.0 °F - 32.0 °F 36% 30.24 in 10.0 mi East 6.9 mph - N/A   Clear
6:15 PM 55.4 °F - 32.0 °F 41% 30.25 in 10.0 mi East 6.9 mph - N/A   Clear
6:35 PM 55.4 °F - 32.0 °F 41% 30.24 in 10.0 mi East 4.6 mph - N/A   Clear
6:55 PM 53.6 °F - 32.0 °F 44% 30.25 in 10.0 mi East 4.6 mph - N/A   Clear
7:15 PM 53.6 °F - 32.0 °F 44% 30.25 in 10.0 mi East 6.9 mph - N/A   Clear
7:35 PM 51.8 °F - 30.2 °F 44% 30.26 in 10.0 mi East 5.8 mph - N/A   Clear
7:55 PM 51.8 °F - 30.2 °F 44% 30.27 in 10.0 mi East 6.9 mph - N/A   Clear
8:15 PM 50.0 °F - 32.0 °F 50% 30.27 in 10.0 mi East 5.8 mph - N/A   Clear
8:35 PM 50.0 °F - 32.0 °F 50% 30.28 in 10.0 mi East 5.8 mph - N/A   Clear
8:55 PM 48.2 °F - 32.0 °F 54% 30.29 in 10.0 mi East 5.8 mph - N/A   Clear
9:15 PM 48.2 °F - 32.0 °F 54% 30.29 in 10.0 mi East 5.8 mph - N/A   Clear
9:35 PM 46.4 °F 43.5 °F 32.0 °F 57% 30.30 in 10.0 mi East 5.8 mph - N/A   Clear
9:55 PM 46.4 °F 42.9 °F 32.0 °F 57% 30.30 in 10.0 mi East 6.9 mph - N/A   Clear
10:15 PM 46.4 °F 44.3 °F 33.8 °F 62% 30.31 in 10.0 mi East 4.6 mph - N/A   Clear
10:35 PM 44.6 °F 42.2 °F 33.8 °F 66% 30.31 in 10.0 mi East 4.6 mph - N/A   Clear
10:55 PM 44.6 °F 41.4 °F 33.8 °F 66% 30.31 in 10.0 mi ENE 5.8 mph - N/A   Clear
11:15 PM 44.6 °F 41.4 °F 33.8 °F 66% 30.32 in 10.0 mi East 5.8 mph - N/A   Clear
11:35 PM 44.6 °F 41.4 °F 33.8 °F 66% 30.32 in 10.0 mi ENE 5.8 mph - N/A   Clear
11:55 PM 44.6 °F 40.2 °F 33.8 °F 66% 30.32 in 10.0 mi East 8.1 mph - N/A   Clear